RH
50 47 49 49 48 48 47 47 45 43 42 40 40 40 38 36 36 34 32 31 32 36 40 41 40 39 39 37 35 30 28 32 34 35 35 39 44 43 42 40 34 32 37 36 34 32 28 26 22 18 13 13 15 17 19 20 20 19 19 19 20 19 18 19 19 19 19 18 18 18 17 16 15 15 15 15 15 16 16 16 17 17 18 18 19
52 48 49 48 48 47 47 47 44 42 41 40 40 40 37 36 35 32 31 32 32 33 38 40 40 39 39 37 34 29 29 32 34 35 35 38 40 41 42 43 34 29 33 35 35 34 30 27 23 19 14 12 14 16 18 19 19 20 20 20 20 19 19 19 19 19 19 18 18 18 17 16 15 15 15 16 15 16 16 16 17 17 17 17 18
51 49 48 48 48 47 46 46 44 43 41 39 40 40 37 35 33 33 33 33 33 33 35 38 40 40 39 37 33 30 30 33 34 34 34 36 37 39 42 43 34 28 32 34 36 36 33 29 24 19 16 14 13 15 17 18 18 20 20 20 20 19 19 18 19 20 19 19 19 19 18 17 16 15 15 16 16 16 16 16 16 17 17 17 18
50 48 48 49 49 47 46 46 45 44 41 40 41 41 36 34 34 34 35 35 35 34 34 36 38 39 38 36 33 31 32 34 34 33 33 31 33 35 38 39 34 28 29 31 33 37 36 29 26 20 16 15 13 14 17 18 18 19 21 20 20 20 20 19 19 20 19 20 19 20 19 17 15 15 15 16 16 16 16 16 16 16 16 17 17
49 48 49 50 50 48 47 46 46 44 43 41 40 40 36 34 35 35 36 37 35 34 34 35 36 36 36 34 33 34 34 36 34 32 32 32 33 34 36 39 38 31 26 25 28 34 35 29 26 21 17 15 14 15 17 20 19 19 21 21 21 21 20 20 19 19 20 20 19 25 24 18 16 15 15 16 16 16 16 16 16 16 16 16 16
50 49 50 51 51 49 49 48 47 46 43 42 41 39 36 35 35 35 37 38 36 34 34 35 35 35 35 35 35 35 35 34 32 32 33 35 35 37 41 44 43 39 34 29 26 29 31 29 26 22 18 15 16 17 20 22 19 19 22 22 22 21 21 21 20 20 20 20 23 31 27 19 17 15 15 16 16 16 16 16 16 16 16 16 16
51 50 51 52 51 51 50 49 49 47 44 42 41 39 37 36 36 37 39 40 37 35 36 37 37 35 35 36 37 36 34 32 32 34 33 35 36 39 45 47 46 45 43 34 27 28 28 31 31 26 20 17 17 17 18 19 21 24 24 23 24 22 21 20 20 20 20 25 33 36 31 22 18 16 15 16 15 16 16 16 16 16 16 16 16
53 52 52 52 52 51 50 50 51 48 46 44 41 40 39 38 39 39 40 42 41 38 38 38 38 37 36 36 37 37 34 33 34 34 33 35 37 40 45 48 49 49 47 40 30 26 27 34 38 34 27 20 15 16 16 18 25 26 24 24 23 23 22 20 21 21 22 33 39 36 34 25 18 16 16 15 15 15 16 16 16 16 16 16 16
53 54 53 54 54 50 49 51 51 50 48 46 42 41 40 40 41 41 42 44 44 42 40 40 40 39 39 38 38 39 38 37 36 33 34 35 38 41 45 49 54 53 49 45 37 25 25 33 40 39 34 24 14 15 16 19 25 24 25 25 24 23 21 21 21 21 28 38 37 36 36 29 22 17 15 15 15 15 15 16 16 17 17 17 16
51 53 52 54 55 50 49 51 51 52 51 48 44 43 42 41 42 42 44 45 45 43 43 42 42 41 41 41 40 40 39 39 35 34 36 36 38 43 45 50 55 55 50 47 39 27 25 30 37 40 35 27 16 13 16 19 23 23 25 25 25 24 22 21 20 24 32 37 35 36 34 32 30 20 16 16 14 15 15 15 16 17 17 17 17
48 49 52 54 54 51 51 53 53 52 53 50 46 45 43 43 43 44 45 44 44 42 41 41 40 39 40 40 39 38 38 37 36 37 39 38 38 43 46 50 55 56 52 48 42 33 27 26 34 38 32 26 19 13 15 18 20 23 23 24 25 24 23 21 23 28 30 35 33 29 28 33 34 21 16 16 14 15 14 15 15 17 18 18 18
44 46 51 53 52 51 53 54 54 53 53 50 46 45 45 44 44 44 44 43 41 41 40 39 38 37 37 37 36 36 36 36 38 39 41 40 39 43 46 49 54 56 52 48 43 37 31 27 30 33 29 25 21 15 14 17 20 23 23 24 25 24 24 21 30 32 28 36 31 26 31 37 34 21 17 17 15 15 14 15 15 17 17 18 18
44 44 49 52 51 52 55 55 54 53 53 49 46 45 45 44 43 43 43 42 41 41 40 39 38 37 37 37 37 37 37 37 40 41 42 42 41 45 46 48 52 53 52 49 43 34 30 29 28 28 28 25 21 18 16 18 20 23 24 26 25 24 24 22 31 34 30 34 31 32 37 36 30 20 19 18 17 16 15 15 15 17 17 18 19
46 44 46 50 49 51 53 54 54 53 51 48 45 43 44 43 43 43 42 42 41 40 39 38 38 37 38 38 38 38 39 40 41 42 42 42 44 46 48 51 53 54 55 55 49 39 31 29 29 28 29 26 22 20 19 19 20 24 27 28 27 25 24 23 30 34 30 28 29 34 36 34 27 19 21 20 19 18 16 16 15 16 17 18 18
48 44 44 46 48 50 50 53 54 51 49 46 44 42 42 43 43 42 41 41 40 40 39 39 39 39 39 39 38 38 38 39 41 42 41 41 44 47 50 54 55 56 58 57 54 50 40 32 30 29 29 28 24 22 21 21 21 24 29 30 29 27 25 28 35 35 29 24 25 30 35 34 25 20 22 20 20 19 17 16 17 17 17 18 18
45 41 42 45 47 49 48 51 51 49 49 48 47 44 43 44 44 43 41 41 41 40 39 38 39 40 41 41 41 40 39 39 40 41 41 42 43 46 51 54 55 55 55 54 51 50 47 38 33 32 31 31 30 28 24 22 21 22 28 31 32 30 27 33 39 38 32 27 23 25 32 30 23 23 22 21 20 19 18 17 18 18 18 18 18
43 40 42 44 45 48 46 48 50 48 49 50 49 46 47 47 44 44 43 44 42 41 40 39 40 41 42 43 42 41 41 39 40 41 42 44 44 45 47 51 53 51 50 50 46 45 48 44 38 35 35 35 34 32 26 22 21 22 25 30 34 33 30 33 38 38 35 29 23 25 30 27 23 24 21 22 21 19 19 18 19 18 18 18 18
44 43 42 44 45 47 46 47 49 49 48 49 48 48 49 49 47 46 46 46 44 43 42 41 41 42 43 43 42 41 40 41 41 43 45 47 47 46 45 48 50 48 47 47 44 43 49 50 43 39 38 37 36 32 28 23 22 23 25 28 32 35 33 31 37 40 32 27 27 29 30 26 22 23 22 22 21 20 20 20 20 19 19 19 18
47 45 42 42 45 49 47 46 47 47 49 48 48 50 50 50 49 48 47 46 45 44 43 42 42 42 43 43 42 40 40 43 44 45 49 53 53 50 48 48 49 46 45 45 42 42 50 55 50 44 40 39 37 33 30 24 22 23 25 27 29 35 36 33 39 40 33 27 30 32 28 23 23 23 22 21 22 21 20 21 21 20 20 20 19
44 43 40 40 45 49 45 43 44 43 46 47 49 51 48 49 48 48 48 45 46 46 44 44 43 43 43 42 42 42 42 45 47 49 54 56 56 54 51 50 48 44 42 42 41 39 46 56 57 50 44 40 38 34 31 26 23 24 25 26 27 32 36 38 41 41 39 33 29 31 26 20 23 23 22 22 21 21 21 21 21 21 21 20 20
41 40 38 39 44 48 46 43 41 41 45 46 49 49 45 45 45 48 49 47 47 47 46 45 44 43 41 43 42 43 47 49 49 51 55 57 57 57 52 50 48 44 41 39 40 40 42 52 56 53 49 43 39 35 30 29 25 24 25 25 26 30 35 41 42 40 42 37 29 28 23 20 22 22 23 22 21 21 21 21 21 21 21 21 21
40 39 39 41 42 44 47 47 43 42 45 44 47 46 44 44 42 47 49 48 47 46 47 45 43 43 43 45 43 47 54 56 55 53 54 55 57 57 51 47 48 50 47 41 41 42 43 47 50 49 49 44 41 38 32 31 26 22 24 24 25 31 36 39 41 41 42 39 33 28 23 21 21 21 22 22 22 22 20 21 21 21 22 22 21
41 41 41 42 41 39 42 48 47 42 42 42 44 44 43 43 40 44 46 45 46 47 48 45 47 48 46 47 46 52 55 55 59 55 51 54 56 56 50 45 49 52 51 45 41 43 44 46 46 43 47 45 41 43 38 34 28 22 23 24 25 31 36 36 38 42 42 40 37 31 26 22 21 21 21 21 22 21 21 21 21 22 22 22 21
40 42 42 43 42 38 38 43 44 40 41 40 39 39 41 42 42 43 43 43 45 44 45 45 48 49 46 49 50 52 50 51 55 51 50 55 58 56 51 50 52 53 52 49 44 44 44 47 50 42 43 48 46 50 43 34 32 24 23 27 26 28 34 36 36 42 42 41 41 34 30 26 22 23 23 22 22 22 23 22 22 22 21 22 21
40 41 43 44 44 41 38 38 40 38 38 39 38 39 40 42 44 44 43 44 44 41 42 44 45 44 42 49 55 52 49 50 49 47 53 58 57 52 49 51 54 55 54 53 53 53 50 52 58 52 49 51 51 55 47 35 34 28 25 28 26 25 31 35 36 41 43 41 42 37 33 30 25 25 25 24 23 22 22 23 23 22 22 22 21
41 42 43 44 46 46 40 36 38 36 37 39 42 42 39 43 47 46 45 44 45 43 43 44 45 45 44 48 52 49 49 50 45 45 53 57 54 48 46 50 53 56 55 57 63 64 61 60 63 64 60 53 50 56 51 38 34 32 31 30 26 26 31 35 36 38 42 43 41 38 35 34 31 27 27 27 24 23 22 22 23 22 23 22 21
43 43 44 43 45 47 41 36 36 36 40 43 46 45 39 41 45 46 47 45 45 47 46 47 48 49 48 48 50 49 50 50 46 45 51 54 50 45 45 51 56 58 58 60 65 66 65 64 62 65 63 51 49 58 56 43 35 34 36 34 27 28 32 35 37 38 40 43 41 38 37 36 34 31 30 30 27 25 23 22 22 22 22 22 22
43 42 45 43 43 44 40 37 36 36 40 43 46 44 38 39 42 44 45 43 45 48 49 50 51 53 54 55 54 52 50 49 47 47 50 51 47 45 46 51 55 59 62 63 65 64 63 63 61 61 62 52 46 55 58 47 37 35 38 38 28 26 32 35 37 39 40 42 41 38 37 37 36 33 32 33 31 28 25 24 22 22 22 21 21
45 43 43 40 42 42 39 36 35 37 38 39 41 40 37 38 40 42 42 41 45 50 52 54 54 56 60 62 56 48 46 47 47 48 49 48 44 45 48 49 51 55 61 67 70 67 63 63 61 58 61 58 50 52 54 45 38 37 38 38 31 27 30 33 34 38 39 39 41 40 37 37 37 35 34 33 34 31 28 26 24 23 23 22 21
44 39 36 34 36 37 34 31 32 35 35 36 39 41 40 39 39 39 38 39 44 48 50 54 55 55 61 63 55 47 45 43 43 47 48 44 41 43 46 47 50 54 60 69 77 76 67 64 64 61 61 61 60 58 52 43 37 36 38 36 31 28 29 31 33 37 39 38 40 41 37 35 36 36 35 34 35 35 32 29 27 26 25 24 23
33 28 29 29 30 30 28 26 26 27 28 28 30 33 34 35 35 34 35 37 38 39 42 48 50 52 58 58 52 49 48 42 35 39 44 42 43 44 43 45 52 58 63 68 75 79 74 71 70 68 66 63 66 65 55 46 39 34 36 35 30 29 28 30 34 37 39 38 40 41 37 33 32 34 36 35 35 35 35 33 29 29 27 26 24
23 23 28 26 27 29 26 24 24 22 23 23 22 23 24 25 26 25 29 31 29 29 32 38 41 47 54 53 50 50 51 47 34 33 42 45 46 47 47 50 57 62 66 67 70 74 76 78 76 75 74 68 69 73 64 53 46 39 37 36 31 28 28 28 32 36 38 38 38 41 41 36 31 31 34 35 36 35 35 35 32 30 29 28 25
22 24 28 25 26 28 24 25 26 23 23 24 22 22 23 24 24 23 24 23 22 24 27 31 35 41 48 50 51 50 47 44 36 35 45 50 51 54 55 57 62 64 65 68 70 71 71 74 76 77 79 76 72 74 74 63 53 48 43 39 36 30 27 27 29 34 37 37 38 41 42 41 35 31 32 35 37 37 37 36 35 33 31 29 27
24 24 27 27 26 24 21 22 23 22 22 22 20 22 23 23 23 23 23 22 23 25 25 28 30 32 38 43 46 47 44 44 42 44 53 57 59 62 62 62 63 63 64 66 69 69 67 69 72 73 76 79 78 75 78 76 66 59 51 42 39 34 28 26 27 31 34 35 37 38 41 42 40 35 34 34 35 37 39 38 36 35 33 31 29
24 24 26 27 25 23 21 20 20 20 21 20 19 19 18 19 23 24 23 24 25 26 25 26 28 28 31 33 35 37 44 51 51 52 57 59 61 66 68 66 63 62 63 65 67 68 67 68 70 70 70 73 79 82 83 82 77 74 64 50 43 39 33 28 26 27 28 31 34 35 38 40 41 40 40 37 35 35 37 39 39 38 37 34 31
25 25 26 26 25 23 22 20 20 20 20 19 19 19 18 20 25 25 23 23 23 24 24 25 27 28 27 29 29 30 39 50 55 55 57 58 60 65 67 67 66 64 63 63 65 67 66 66 68 71 70 69 75 82 83 81 80 82 81 72 58 45 39 35 30 26 26 28 31 32 35 36 36 38 41 41 39 36 35 37 38 39 39 37 33
27 26 26 26 25 23 22 20 20 19 19 19 19 20 21 23 25 24 23 24 24 25 25 24 25 26 27 30 30 28 32 42 50 52 54 58 59 60 62 65 66 65 62 61 62 63 63 63 65 67 70 71 74 78 79 79 79 80 84 85 76 58 45 41 35 30 29 28 28 29 31 33 34 34 36 40 42 40 36 35 36 37 37 36 34
29 28 28 28 27 24 22 20 20 19 19 19 19 21 22 22 24 23 23 23 24 25 25 26 29 31 32 31 29 28 30 33 37 42 48 55 60 62 63 62 60 58 57 59 62 62 61 61 63 63 65 69 74 75 76 77 77 79 82 83 84 74 59 50 41 34 33 33 31 27 29 33 34 34 35 37 40 40 38 37 37 36 36 36 35
30 29 29 30 29 26 23 21 20 20 18 18 18 20 22 23 24 24 23 25 26 25 26 29 32 34 34 29 25 26 29 28 28 31 36 44 53 59 61 59 55 52 54 57 61 62 60 61 63 64 65 67 71 74 76 78 78 81 84 82 83 82 74 67 56 45 39 38 33 28 31 34 33 35 37 37 38 39 39 40 39 37 35 35 34
30 30 31 31 30 27 24 23 22 21 19 19 20 23 27 26 26 27 27 28 29 27 27 31 32 32 33 29 25 25 23 22 23 25 27 28 34 40 42 45 44 44 49 50 53 58 57 59 63 63 64 66 69 71 73 78 80 82 84 82 82 83 81 79 72 60 51 45 39 34 36 35 31 34 37 38 39 39 40 40 40 39 38 36 34
30 31 32 32 31 28 26 25 24 23 20 23 26 27 29 27 27 28 28 27 26 24 25 30 30 27 27 26 24 23 17 15 18 21 24 20 21 29 27 26 29 31 37 39 43 51 53 55 59 60 62 65 69 71 71 75 79 81 83 83 83 83 82 83 77 68 61 55 47 42 39 33 30 34 37 37 39 41 41 40 39 39 40 39 36
31 32 33 33 32 30 28 27 25 24 22 24 27 26 25 26 27 26 26 27 25 26 28 28 23 18 17 18 17 17 17 17 20 22 26 22 21 27 25 21 24 24 28 33 39 46 50 50 52 57 62 64 68 71 74 79 82 83 85 87 87 85 83 83 78 73 70 64 56 49 43 36 34 36 36 36 38 40 42 41 39 38 38 39 39
34 35 36 36 34 33 31 29 27 26 23 23 26 24 20 20 22 21 21 23 22 24 26 21 18 16 14 14 13 16 22 27 28 27 28 27 25 27 27 25 24 24 26 30 34 40 44 43 44 52 60 63 65 70 77 81 85 86 86 89 90 87 86 84 80 80 78 71 65 60 52 43 39 38 39 38 36 37 38 38 38 38 36 38 40
38 38 39 38 36 36 35 32 30 27 23 24 25 23 17 16 17 16 16 19 17 16 17 15 15 15 13 14 13 14 22 29 30 29 28 27 27 27 27 27 26 25 26 28 30 33 36 36 39 46 53 60 65 70 77 78 81 87 87 88 90 88 88 86 84 88 86 77 72 70 62 51 44 42 41 38 33 32 34 36 37 38 37 38 39
42 41 41 39 38 38 37 36 32 27 25 25 24 21 19 17 16 15 15 16 15 15 17 17 16 15 14 14 13 12 18 24 28 30 29 27 27 26 26 27 27 27 27 28 28 30 31 32 38 45 45 51 58 63 70 71 75 84 87 87 89 90 90 87 85 89 89 84 78 73 66 56 47 42 40 36 32 31 32 35 36 36 37 39 40
44 45 43 41 40 40 39 38 32 27 26 26 25 22 20 18 17 16 16 16 18 20 22 19 16 17 16 14 15 15 15 19 23 26 25 25 27 26 27 27 26 26 25 27 27 28 28 28 33 38 36 38 43 48 55 60 66 76 83 87 89 91 91 88 86 89 91 90 83 73 69 64 52 43 41 39 38 37 36 36 37 37 38 39 38
45 46 46 43 42 42 41 38 32 27 26 27 26 24 21 19 18 17 17 20 23 23 21 18 17 17 16 16 15 15 15 16 18 18 17 18 20 20 22 23 22 20 18 19 20 21 22 22 23 25 27 29 32 34 37 44 52 60 69 77 82 84 86 85 85 87 88 91 91 83 81 79 67 57 53 45 41 42 41 40 39 39 39 38 36
46 45 46 45 43 43 42 37 32 28 27 28 27 25 22 19 19 18 18 22 23 19 17 17 17 16 16 16 15 15 15 15 15 15 15 14 15 15 16 17 17 16 15 13 13 13 13 14 15 15 18 21 25 27 28 32 37 41 46 53 60 67 75 81 84 86 85 88 93 92 92 91 81 74 69 57 49 45 41 38 36 37 39 40 38
46 44 45 46 44 44 42 37 32 30 28 28 28 26 23 19 18 18 19 22 22 19 18 17 16 16 16 16 15 14 14 14 14 14 14 15 14 14 14 14 15 16 17 15 13 13 12 12 13 12 12 13 15 18 21 24 27 28 30 33 37 43 53 61 67 75 82 86 90 90 91 92 89 85 80 74 69 60 52 47 42 42 41 39 39
44 43 43 45 45 43 41 37 34 32 30 30 29 27 24 20 18 18 18 20 21 20 21 19 17 17 17 16 16 15 14 13 13 13 13 14 14 14 15 15 15 15 16 15 15 15 14 14 14 13 13 12 12 12 13 15 16 17 20 26 29 30 33 37 38 45 56 66 74 79 81 84 86 88 88 86 85 79 73 68 64 61 56 51 50
42 40 41 44 46 45 42 39 36 34 31 31 29 27 24 21 19 20 20 20 20 21 22 21 19 19 18 18 18 17 16 14 14 13 13 13 13 14 14 14 15 15 15 15 16 16 16 16 15 15 15 14 14 14 12 12 12 11 13 18 23 23 24 27 28 30 33 40 49 57 63 67 71 76 80 81 81 80 79 78 75 75 72 69 67